Year,Month,Day,Hour,Minute,Value (Times are PST for temperature in C)
2012,07,23,00,00,11.70
2012,07,23,00,01,11.70
2012,07,23,00,02,11.70
2012,07,23,00,03,11.70
2012,07,23,00,04,11.70
2012,07,23,00,05,11.70
2012,07,23,00,06,11.70
2012,07,23,00,07,11.70
2012,07,23,00,08,11.70
2012,07,23,00,09,11.70
2012,07,23,00,10,11.70
2012,07,23,00,11,11.70
2012,07,23,00,12,11.70
2012,07,23,00,13,11.70
2012,07,23,00,14,11.70
2012,07,23,00,15,11.70
2012,07,23,00,16,11.70
2012,07,23,00,17,11.60
2012,07,23,00,18,11.60
2012,07,23,00,19,11.60
2012,07,23,00,20,11.60
2012,07,23,00,21,11.60
2012,07,23,00,22,11.60
2012,07,23,00,23,11.60
2012,07,23,00,24,11.60
2012,07,23,00,25,11.60
2012,07,23,00,26,11.60
2012,07,23,00,27,11.60
2012,07,23,00,28,11.60
2012,07,23,00,29,11.60
2012,07,23,00,30,11.60
2012,07,23,00,31,11.60
2012,07,23,00,32,11.60
2012,07,23,00,33,11.60
2012,07,23,00,34,11.60
2012,07,23,00,35,11.60
2012,07,23,00,36,11.60
2012,07,23,00,37,11.60
2012,07,23,00,38,11.60
2012,07,23,00,39,11.60
2012,07,23,00,40,11.60
2012,07,23,00,41,11.60
2012,07,23,00,42,11.60
2012,07,23,00,43,11.60
2012,07,23,00,44,11.60
2012,07,23,00,45,11.60
2012,07,23,00,46,11.60
2012,07,23,00,47,11.60
2012,07,23,00,48,11.60
2012,07,23,00,49,11.60
2012,07,23,00,50,11.60
2012,07,23,00,51,11.60
2012,07,23,00,52,11.60
2012,07,23,00,53,11.60
2012,07,23,00,54,11.60
2012,07,23,00,55,11.60
2012,07,23,00,56,11.60
2012,07,23,00,57,11.60
2012,07,23,00,58,11.60
2012,07,23,00,59,11.60
2012,07,23,01,00,11.60
2012,07,23,01,01,11.60
2012,07,23,01,02,11.60
2012,07,23,01,03,11.60
2012,07,23,01,04,11.60
2012,07,23,01,05,11.60
2012,07,23,01,06,11.60
2012,07,23,01,07,11.60
2012,07,23,01,08,11.60
2012,07,23,01,09,11.60
2012,07,23,01,10,11.60
2012,07,23,01,11,11.60
2012,07,23,01,12,11.60
2012,07,23,01,13,11.60
2012,07,23,01,14,11.60
2012,07,23,01,15,11.60
2012,07,23,01,16,11.60
2012,07,23,01,17,11.60
2012,07,23,01,18,11.60
2012,07,23,01,19,11.60
2012,07,23,01,20,11.60
2012,07,23,01,21,11.60
2012,07,23,01,22,11.60
2012,07,23,01,23,11.60
2012,07,23,01,24,11.60
2012,07,23,01,25,11.60
2012,07,23,01,26,11.60
2012,07,23,01,27,11.60
2012,07,23,01,28,11.60
2012,07,23,01,29,11.60
2012,07,23,01,30,11.60
2012,07,23,01,31,11.60
2012,07,23,01,32,11.60
2012,07,23,01,33,11.60
2012,07,23,01,34,11.60
2012,07,23,01,35,11.60
2012,07,23,01,36,11.60
2012,07,23,01,37,11.60
2012,07,23,01,38,11.60
2012,07,23,01,39,11.60
2012,07,23,01,40,11.60
2012,07,23,01,41,11.60
2012,07,23,01,42,11.60
2012,07,23,01,43,11.60
2012,07,23,01,44,11.60
2012,07,23,01,45,11.60
2012,07,23,01,46,11.60
2012,07,23,01,47,11.60
2012,07,23,01,48,11.60
2012,07,23,01,49,11.60
2012,07,23,01,50,11.60
2012,07,23,01,51,11.60
2012,07,23,01,52,11.60
2012,07,23,01,53,11.60
2012,07,23,01,54,11.60
2012,07,23,01,55,11.60
2012,07,23,01,56,11.60
2012,07,23,01,57,11.60
2012,07,23,01,58,11.60
2012,07,23,01,59,11.60
2012,07,23,02,00,11.60
2012,07,23,02,01,11.60
2012,07,23,02,02,11.60
2012,07,23,02,03,11.60
2012,07,23,02,04,11.60
2012,07,23,02,05,11.60
2012,07,23,02,06,11.60
2012,07,23,02,07,11.60
2012,07,23,02,08,11.60
2012,07,23,02,09,11.60
2012,07,23,02,10,11.60
2012,07,23,02,11,11.60
2012,07,23,02,12,11.60
2012,07,23,02,13,11.70
2012,07,23,02,14,11.70
2012,07,23,02,15,11.70
2012,07,23,02,16,11.70
2012,07,23,02,17,11.70
2012,07,23,02,18,11.70
2012,07,23,02,19,11.70
2012,07,23,02,20,11.70
2012,07,23,02,21,11.70
2012,07,23,02,22,11.70
2012,07,23,02,23,11.70
2012,07,23,02,24,11.70
2012,07,23,02,25,11.70
2012,07,23,02,26,11.70
2012,07,23,02,27,11.70
2012,07,23,02,28,11.70
2012,07,23,02,29,11.70
2012,07,23,02,30,11.70
2012,07,23,02,31,11.70
2012,07,23,02,32,11.60
2012,07,23,02,33,11.60
2012,07,23,02,34,11.60
2012,07,23,02,35,11.60
2012,07,23,02,36,11.60
2012,07,23,02,37,11.60
2012,07,23,02,38,11.60
2012,07,23,02,39,11.60
2012,07,23,02,40,11.60
2012,07,23,02,41,11.60
2012,07,23,02,42,11.60
2012,07,23,02,43,11.60
2012,07,23,02,44,11.60
2012,07,23,02,45,11.60
2012,07,23,02,46,11.60
2012,07,23,02,47,11.60
2012,07,23,02,48,11.60
2012,07,23,02,49,11.60
2012,07,23,02,50,11.60
2012,07,23,02,51,11.60
2012,07,23,02,52,11.60
2012,07,23,02,53,11.60
2012,07,23,02,54,11.60
2012,07,23,02,55,11.60
2012,07,23,02,56,11.60
2012,07,23,02,57,11.60
2012,07,23,02,58,11.60
2012,07,23,02,59,11.60
2012,07,23,03,00,11.60
2012,07,23,03,01,11.60
2012,07,23,03,02,11.60
2012,07,23,03,03,11.60
2012,07,23,03,04,11.60
2012,07,23,03,05,11.60
2012,07,23,03,06,11.60
2012,07,23,03,07,11.60
2012,07,23,03,08,11.60
2012,07,23,03,09,11.60
2012,07,23,03,10,11.60
2012,07,23,03,11,11.60
2012,07,23,03,12,11.60
2012,07,23,03,13,11.60
2012,07,23,03,14,11.60
2012,07,23,03,15,11.60
2012,07,23,03,16,11.60
2012,07,23,03,17,11.60
2012,07,23,03,18,11.60
2012,07,23,03,19,11.60
2012,07,23,03,20,11.60
2012,07,23,03,21,11.60
2012,07,23,03,22,11.60
2012,07,23,03,23,11.60
2012,07,23,03,24,11.60
2012,07,23,03,25,11.60
2012,07,23,03,26,11.60
2012,07,23,03,27,11.60
2012,07,23,03,28,11.70
2012,07,23,03,29,11.70
2012,07,23,03,30,11.70
2012,07,23,03,31,11.70
2012,07,23,03,32,11.70
2012,07,23,03,33,11.70
2012,07,23,03,34,11.70
2012,07,23,03,35,11.70
2012,07,23,03,36,11.70
2012,07,23,03,37,11.70
2012,07,23,03,38,11.80
2012,07,23,03,39,11.80
2012,07,23,03,40,11.80
2012,07,23,03,41,11.80
2012,07,23,03,42,11.80
2012,07,23,03,43,11.80
2012,07,23,03,44,11.80
2012,07,23,03,45,11.80
2012,07,23,03,46,11.80
2012,07,23,03,47,11.80
2012,07,23,03,48,11.80
2012,07,23,03,49,11.80
2012,07,23,03,50,11.80
2012,07,23,03,51,11.80
2012,07,23,03,52,11.80
2012,07,23,03,53,11.80
2012,07,23,03,54,11.80
2012,07,23,03,55,11.80
2012,07,23,03,56,11.80
2012,07,23,03,57,11.80
2012,07,23,03,58,11.80
2012,07,23,03,59,11.80
2012,07,23,04,00,11.80
2012,07,23,04,01,11.80
2012,07,23,04,02,11.80
2012,07,23,04,03,11.80
2012,07,23,04,04,11.80
2012,07,23,04,05,11.80
2012,07,23,04,06,11.80
2012,07,23,04,07,11.80
2012,07,23,04,08,11.90
2012,07,23,04,09,11.90
2012,07,23,04,10,11.90
2012,07,23,04,11,11.90
2012,07,23,04,12,11.90
2012,07,23,04,13,11.90
2012,07,23,04,14,11.90
2012,07,23,04,15,11.90
2012,07,23,04,16,11.90
2012,07,23,04,17,11.90
2012,07,23,04,18,11.90
2012,07,23,04,19,11.90
2012,07,23,04,20,11.90
2012,07,23,04,21,11.90
2012,07,23,04,22,11.90
2012,07,23,04,23,11.90
2012,07,23,04,24,12.00
2012,07,23,04,25,11.90
2012,07,23,04,26,11.90
2012,07,23,04,27,12.00
2012,07,23,04,28,12.00
2012,07,23,04,29,12.00
2012,07,23,04,30,12.00
2012,07,23,04,31,11.90
2012,07,23,04,32,11.90
2012,07,23,04,33,11.90
2012,07,23,04,34,11.90
2012,07,23,04,35,11.90
2012,07,23,04,36,12.00
2012,07,23,04,37,12.00
2012,07,23,04,38,12.00
2012,07,23,04,39,12.00
2012,07,23,04,40,12.00
2012,07,23,04,41,12.00
2012,07,23,04,42,11.90
2012,07,23,04,43,11.90
2012,07,23,04,44,11.90
2012,07,23,04,45,11.90
2012,07,23,04,46,11.90
2012,07,23,04,47,11.90
2012,07,23,04,48,11.90
2012,07,23,04,49,11.90
2012,07,23,04,50,11.90
2012,07,23,04,51,11.90
2012,07,23,04,52,11.90
2012,07,23,04,53,11.90
2012,07,23,04,54,11.90
2012,07,23,04,55,11.80
2012,07,23,04,56,11.80
2012,07,23,04,57,11.80
2012,07,23,04,58,11.80
2012,07,23,04,59,11.80
2012,07,23,05,00,11.90
2012,07,23,05,01,11.80
2012,07,23,05,02,11.90
2012,07,23,05,03,11.90
2012,07,23,05,04,11.90
2012,07,23,05,05,11.90
2012,07,23,05,06,11.90
2012,07,23,05,07,11.90
2012,07,23,05,08,11.90
2012,07,23,05,09,11.90
2012,07,23,05,10,11.90
2012,07,23,05,11,11.90
2012,07,23,05,12,11.90
2012,07,23,05,13,11.90
2012,07,23,05,14,11.90
2012,07,23,05,15,11.90
2012,07,23,05,16,11.90
2012,07,23,05,17,11.90
2012,07,23,05,18,11.90
2012,07,23,05,19,11.90
2012,07,23,05,20,11.90
2012,07,23,05,21,11.90
2012,07,23,05,22,11.90
2012,07,23,05,23,11.90
2012,07,23,05,24,11.90
2012,07,23,05,25,11.90
2012,07,23,05,26,11.90
2012,07,23,05,27,11.90
2012,07,23,05,28,11.90
2012,07,23,05,29,11.90
2012,07,23,05,30,11.90
2012,07,23,05,31,11.90
2012,07,23,05,32,11.90
2012,07,23,05,33,11.90
2012,07,23,05,34,11.90
2012,07,23,05,35,11.90
2012,07,23,05,36,11.90
2012,07,23,05,37,11.90
2012,07,23,05,38,11.90
2012,07,23,05,39,11.90
2012,07,23,05,40,11.90
2012,07,23,05,41,11.90
2012,07,23,05,42,11.90
2012,07,23,05,43,11.90
2012,07,23,05,44,11.90
2012,07,23,05,45,11.90
2012,07,23,05,46,11.90
2012,07,23,05,47,11.90
2012,07,23,05,48,11.90
2012,07,23,05,49,11.90
2012,07,23,05,50,11.90
2012,07,23,05,51,11.90
2012,07,23,05,52,11.90
2012,07,23,05,53,11.80
2012,07,23,05,54,11.80
2012,07,23,05,55,11.80
2012,07,23,05,56,11.80
2012,07,23,05,57,11.80
2012,07,23,05,58,11.80
2012,07,23,05,59,11.80
2012,07,23,06,00,11.80
2012,07,23,06,01,11.80
2012,07,23,06,02,11.80
2012,07,23,06,03,11.80
2012,07,23,06,04,11.80
2012,07,23,06,05,11.80
2012,07,23,06,06,11.80
2012,07,23,06,07,11.80
2012,07,23,06,08,11.80
2012,07,23,06,09,11.80
2012,07,23,06,10,11.80
2012,07,23,06,11,11.80
2012,07,23,06,12,11.80
2012,07,23,06,13,11.80
2012,07,23,06,14,11.80
2012,07,23,06,15,11.80
2012,07,23,06,16,11.80
2012,07,23,06,17,11.80
2012,07,23,06,18,11.80
2012,07,23,06,19,11.90
2012,07,23,06,20,11.90
2012,07,23,06,21,11.90
2012,07,23,06,22,11.90
2012,07,23,06,23,11.90
2012,07,23,06,24,11.90
2012,07,23,06,25,11.90
2012,07,23,06,26,11.90
2012,07,23,06,27,12.00
2012,07,23,06,28,12.00
2012,07,23,06,29,12.00
2012,07,23,06,30,12.00
2012,07,23,06,31,12.00
2012,07,23,06,32,12.00
2012,07,23,06,33,12.00
2012,07,23,06,34,12.00
2012,07,23,06,35,12.10
2012,07,23,06,36,12.10
2012,07,23,06,37,12.10
2012,07,23,06,38,12.10
2012,07,23,06,39,12.10
2012,07,23,06,40,12.10
2012,07,23,06,41,12.10
2012,07,23,06,42,12.10
2012,07,23,06,43,12.10
2012,07,23,06,44,12.20
2012,07,23,06,45,12.20
2012,07,23,06,46,12.20
2012,07,23,06,47,12.20
2012,07,23,06,48,12.20
2012,07,23,06,49,12.20
2012,07,23,06,50,12.20
2012,07,23,06,51,12.20
2012,07,23,06,52,12.20
2012,07,23,06,53,12.20
2012,07,23,06,54,12.20
2012,07,23,06,55,12.30
2012,07,23,06,56,12.30
2012,07,23,06,57,12.30
2012,07,23,06,58,12.30
2012,07,23,06,59,12.30
2012,07,23,07,00,12.30
2012,07,23,07,01,12.30
2012,07,23,07,02,12.30
2012,07,23,07,03,12.30
2012,07,23,07,04,12.30
2012,07,23,07,05,12.30
2012,07,23,07,06,12.30
2012,07,23,07,07,12.30
2012,07,23,07,08,12.30
2012,07,23,07,09,12.30
2012,07,23,07,10,12.30
2012,07,23,07,11,12.30
2012,07,23,07,12,12.30
2012,07,23,07,13,12.30
2012,07,23,07,14,12.30
2012,07,23,07,15,12.30
2012,07,23,07,16,12.30
2012,07,23,07,17,12.30
2012,07,23,07,18,12.30
2012,07,23,07,19,12.30
2012,07,23,07,20,12.30
2012,07,23,07,21,12.30
2012,07,23,07,22,12.30
2012,07,23,07,23,12.30
2012,07,23,07,24,12.30
2012,07,23,07,25,12.30
2012,07,23,07,26,12.30
2012,07,23,07,27,12.30
2012,07,23,07,28,12.30
2012,07,23,07,29,12.30
2012,07,23,07,30,12.30
2012,07,23,07,31,12.30
2012,07,23,07,32,12.30
2012,07,23,07,33,12.30
2012,07,23,07,34,12.30
2012,07,23,07,35,12.30
2012,07,23,07,36,12.30
2012,07,23,07,37,12.30
2012,07,23,07,38,12.30
2012,07,23,07,39,12.30
2012,07,23,07,40,12.30
2012,07,23,07,41,12.30
2012,07,23,07,42,12.30
2012,07,23,07,43,12.30
2012,07,23,07,44,12.40
2012,07,23,07,45,12.40
2012,07,23,07,46,12.40
2012,07,23,07,47,12.40
2012,07,23,07,48,12.40
2012,07,23,07,49,12.40
2012,07,23,07,50,12.40
2012,07,23,07,51,12.40
2012,07,23,07,52,12.40
2012,07,23,07,53,12.40
2012,07,23,07,54,12.40
2012,07,23,07,55,12.40
2012,07,23,07,56,12.40
2012,07,23,07,57,12.40
2012,07,23,07,58,12.40
2012,07,23,07,59,12.40
2012,07,23,08,00,12.40
2012,07,23,08,01,12.40
2012,07,23,08,02,12.40
2012,07,23,08,03,12.40
2012,07,23,08,04,12.40
2012,07,23,08,05,12.40
2012,07,23,08,06,12.40
2012,07,23,08,07,12.40
2012,07,23,08,08,12.40
2012,07,23,08,09,12.30
2012,07,23,08,10,12.30
2012,07,23,08,11,12.30
2012,07,23,08,12,12.30
2012,07,23,08,13,12.30
2012,07,23,08,14,12.30
2012,07,23,08,15,12.30
2012,07,23,08,16,12.30
2012,07,23,08,17,12.30
2012,07,23,08,18,12.30
2012,07,23,08,19,12.30
2012,07,23,08,20,12.30
2012,07,23,08,21,12.30
2012,07,23,08,22,12.30
2012,07,23,08,23,12.20
2012,07,23,08,24,12.20
2012,07,23,08,25,12.20
2012,07,23,08,26,12.20
2012,07,23,08,27,12.20
2012,07,23,08,28,12.20
2012,07,23,08,29,12.20
2012,07,23,08,30,12.20
2012,07,23,08,31,12.20
2012,07,23,08,32,12.20
2012,07,23,08,33,12.10
2012,07,23,08,34,12.10
2012,07,23,08,35,12.10
2012,07,23,08,36,12.10
2012,07,23,08,37,12.10
2012,07,23,08,38,12.10
2012,07,23,08,39,12.10
2012,07,23,08,40,12.00
2012,07,23,08,41,12.00
2012,07,23,08,42,12.00
2012,07,23,08,43,12.00
2012,07,23,08,44,12.00
2012,07,23,08,45,12.00
2012,07,23,08,46,12.00
2012,07,23,08,47,12.00
2012,07,23,08,48,12.00
2012,07,23,08,49,12.00
2012,07,23,08,50,12.00
2012,07,23,08,51,12.00
2012,07,23,08,52,12.00
2012,07,23,08,53,12.00
2012,07,23,08,54,12.00
2012,07,23,08,55,12.00
2012,07,23,08,56,12.00
2012,07,23,08,57,12.00
2012,07,23,08,58,12.00
2012,07,23,08,59,12.00
2012,07,23,09,00,12.00
2012,07,23,09,01,12.00
2012,07,23,09,02,12.00
2012,07,23,09,03,12.00
2012,07,23,09,04,12.00
2012,07,23,09,05,12.00
2012,07,23,09,06,12.00
2012,07,23,09,07,12.10
2012,07,23,09,08,12.10
2012,07,23,09,09,12.00
2012,07,23,09,10,12.00
2012,07,23,09,11,12.00
2012,07,23,09,12,12.00
2012,07,23,09,13,12.00
2012,07,23,09,14,12.00
2012,07,23,09,15,12.00
2012,07,23,09,16,12.00
2012,07,23,09,17,12.00
2012,07,23,09,18,12.00
2012,07,23,09,19,12.00
2012,07,23,09,20,12.00
2012,07,23,09,21,11.90
2012,07,23,09,22,11.90
2012,07,23,09,23,11.90
2012,07,23,09,24,11.90
2012,07,23,09,25,12.00
2012,07,23,09,26,12.00
2012,07,23,09,27,12.10
2012,07,23,09,28,12.10
2012,07,23,09,29,12.20
2012,07,23,09,30,12.20
2012,07,23,09,31,12.20
2012,07,23,09,32,12.20
2012,07,23,09,33,12.30
2012,07,23,09,34,12.30
2012,07,23,09,35,12.40
2012,07,23,09,36,12.50
2012,07,23,09,37,12.50
2012,07,23,09,38,12.50
2012,07,23,09,39,12.60
2012,07,23,09,40,12.70
2012,07,23,09,41,12.70
2012,07,23,09,42,12.80
2012,07,23,09,43,13.00
2012,07,23,09,44,13.00
2012,07,23,09,45,13.10
2012,07,23,09,46,13.20
2012,07,23,09,47,13.30
2012,07,23,09,48,13.30
2012,07,23,09,49,13.30
2012,07,23,09,50,13.30
2012,07,23,09,51,13.30
2012,07,23,09,52,13.40
2012,07,23,09,53,13.30
2012,07,23,09,54,13.30
2012,07,23,09,55,13.30
2012,07,23,09,56,13.30
2012,07,23,09,57,13.40
2012,07,23,09,58,13.50
2012,07,23,09,59,13.40
2012,07,23,10,00,13.50
2012,07,23,10,01,13.50
2012,07,23,10,02,13.50
2012,07,23,10,03,13.50
2012,07,23,10,04,13.60
2012,07,23,10,05,13.50
2012,07,23,10,06,13.50
2012,07,23,10,07,13.60
2012,07,23,10,08,13.70
2012,07,23,10,09,13.70
2012,07,23,10,10,13.70
2012,07,23,10,11,13.70
2012,07,23,10,12,13.70
2012,07,23,10,13,13.70
2012,07,23,10,14,13.70
2012,07,23,10,15,13.80
2012,07,23,10,16,13.80
2012,07,23,10,17,13.90
2012,07,23,10,18,14.00
2012,07,23,10,19,14.00
2012,07,23,10,20,14.00
2012,07,23,10,21,14.00
2012,07,23,10,22,13.90
2012,07,23,10,23,13.90
2012,07,23,10,24,13.90
2012,07,23,10,25,13.80
2012,07,23,10,26,13.80
2012,07,23,10,27,13.80
2012,07,23,10,28,13.80
2012,07,23,10,29,13.70
2012,07,23,10,30,13.60
2012,07,23,10,31,13.60
2012,07,23,10,32,13.40
2012,07,23,10,33,13.30
2012,07,23,10,34,13.30
2012,07,23,10,35,13.20
2012,07,23,10,36,13.20
2012,07,23,10,37,13.10
2012,07,23,10,38,13.00
2012,07,23,10,39,13.00
2012,07,23,10,40,13.00
2012,07,23,10,41,12.90
2012,07,23,10,42,12.90
2012,07,23,10,43,12.80
2012,07,23,10,44,12.80
2012,07,23,10,45,12.80
2012,07,23,10,46,12.80
2012,07,23,10,47,12.80
2012,07,23,10,48,12.80
2012,07,23,10,49,12.90
2012,07,23,10,50,13.00
2012,07,23,10,51,13.10
2012,07,23,10,52,13.10
2012,07,23,10,53,13.20
2012,07,23,10,54,13.20
2012,07,23,10,55,13.20
2012,07,23,10,56,13.30
2012,07,23,10,57,13.30
2012,07,23,10,58,13.30
2012,07,23,10,59,13.40
2012,07,23,11,00,13.50
2012,07,23,11,01,13.50
2012,07,23,11,02,13.60
2012,07,23,11,03,13.70
2012,07,23,11,04,13.70
2012,07,23,11,05,13.70
2012,07,23,11,06,13.80
2012,07,23,11,07,13.80
2012,07,23,11,08,13.80
2012,07,23,11,09,13.90
2012,07,23,11,10,13.90
2012,07,23,11,11,13.90
2012,07,23,11,12,13.90
2012,07,23,11,13,13.90
2012,07,23,11,14,13.90
2012,07,23,11,15,13.90
2012,07,23,11,16,13.90
2012,07,23,11,17,13.90
2012,07,23,11,18,13.90
2012,07,23,11,19,13.90
2012,07,23,11,20,13.90
2012,07,23,11,21,13.90
2012,07,23,11,22,13.90
2012,07,23,11,23,13.90
2012,07,23,11,24,14.00
2012,07,23,11,25,14.00
2012,07,23,11,26,14.00
2012,07,23,11,27,14.10
2012,07,23,11,28,14.00
2012,07,23,11,29,14.00
2012,07,23,11,30,14.10
2012,07,23,11,31,14.10
2012,07,23,11,32,14.00
2012,07,23,11,33,14.00
2012,07,23,11,34,14.00
2012,07,23,11,35,14.00
2012,07,23,11,36,13.90
2012,07,23,11,37,13.90
2012,07,23,11,38,13.90
2012,07,23,11,39,14.00
2012,07,23,11,40,14.10
2012,07,23,11,41,14.10
2012,07,23,11,42,14.20
2012,07,23,11,43,14.20
2012,07,23,11,44,14.20
2012,07,23,11,45,14.20
2012,07,23,11,46,14.10
2012,07,23,11,47,14.10
2012,07,23,11,48,14.00
2012,07,23,11,49,14.00
2012,07,23,11,50,13.90
2012,07,23,11,51,13.80
2012,07,23,11,52,13.80
2012,07,23,11,53,13.80
2012,07,23,11,54,13.80
2012,07,23,11,55,13.80
2012,07,23,11,56,13.80
2012,07,23,11,57,13.80
2012,07,23,11,58,13.80
2012,07,23,11,59,13.90
2012,07,23,12,00,13.90
2012,07,23,12,01,14.00
2012,07,23,12,02,14.00
2012,07,23,12,03,14.00
2012,07,23,12,04,14.10
2012,07,23,12,05,14.10
2012,07,23,12,06,14.20
2012,07,23,12,07,14.20
2012,07,23,12,08,14.20
2012,07,23,12,09,14.20
2012,07,23,12,10,14.20
2012,07,23,12,11,14.20
2012,07,23,12,12,14.30
2012,07,23,12,13,14.30
2012,07,23,12,14,14.30
2012,07,23,12,15,14.30
2012,07,23,12,16,14.30
2012,07,23,12,17,14.40
2012,07,23,12,18,14.40
2012,07,23,12,19,14.50
2012,07,23,12,20,14.50
2012,07,23,12,21,14.40
2012,07,23,12,22,14.40
2012,07,23,12,23,14.40
2012,07,23,12,24,14.40
2012,07,23,12,25,14.40
2012,07,23,12,26,14.40
2012,07,23,12,27,14.50
2012,07,23,12,28,14.60
2012,07,23,12,29,14.60
2012,07,23,12,30,14.70
2012,07,23,12,31,14.80
2012,07,23,12,32,14.90
2012,07,23,12,33,15.00
2012,07,23,12,34,15.00
2012,07,23,12,35,14.90
2012,07,23,12,36,15.00
2012,07,23,12,37,15.00
2012,07,23,12,38,15.10
2012,07,23,12,39,15.10
2012,07,23,12,40,15.20
2012,07,23,12,41,15.20
2012,07,23,12,42,15.20
2012,07,23,12,43,15.20
2012,07,23,12,44,15.20
2012,07,23,12,45,15.20
2012,07,23,12,46,15.10
2012,07,23,12,47,15.10
2012,07,23,12,48,15.10
2012,07,23,12,49,15.00
2012,07,23,12,50,15.00
2012,07,23,12,51,15.00
2012,07,23,12,52,15.00
2012,07,23,12,53,15.00
2012,07,23,12,54,14.90
2012,07,23,12,55,14.90
2012,07,23,12,56,14.80
2012,07,23,12,57,14.80
2012,07,23,12,58,14.80
2012,07,23,12,59,14.80
2012,07,23,13,00,14.80
2012,07,23,13,01,14.70
2012,07,23,13,02,14.70
2012,07,23,13,03,14.60
2012,07,23,13,04,14.50
2012,07,23,13,05,14.50
2012,07,23,13,06,14.50
2012,07,23,13,07,14.40
2012,07,23,13,08,14.40
2012,07,23,13,09,14.40
2012,07,23,13,10,14.30
2012,07,23,13,11,14.30
2012,07,23,13,12,14.20
2012,07,23,13,13,14.20
2012,07,23,13,14,14.20
2012,07,23,13,15,14.20
2012,07,23,13,16,14.20
2012,07,23,13,17,14.20
2012,07,23,13,18,14.20
2012,07,23,13,19,14.10
2012,07,23,13,20,14.10
2012,07,23,13,21,14.10
2012,07,23,13,22,14.10
2012,07,23,13,23,14.10
2012,07,23,13,24,14.10
2012,07,23,13,25,14.00
2012,07,23,13,26,14.00
2012,07,23,13,27,14.00
2012,07,23,13,28,13.90
2012,07,23,13,29,13.80
2012,07,23,13,30,13.80
2012,07,23,13,31,13.70
2012,07,23,13,32,13.70
2012,07,23,13,33,13.70
2012,07,23,13,34,13.70
2012,07,23,13,35,13.70
2012,07,23,13,36,13.60
2012,07,23,13,37,13.60
2012,07,23,13,38,13.60
2012,07,23,13,39,13.50
2012,07,23,13,40,13.50
2012,07,23,13,41,13.40
2012,07,23,13,42,13.40
2012,07,23,13,43,13.40
2012,07,23,13,44,13.40
2012,07,23,13,45,13.30
2012,07,23,13,46,13.30
2012,07,23,13,47,13.30
2012,07,23,13,48,13.30
2012,07,23,13,49,13.30
2012,07,23,13,50,13.30
2012,07,23,13,51,13.30
2012,07,23,13,52,13.30
2012,07,23,13,53,13.30
2012,07,23,13,54,13.30
2012,07,23,13,55,13.30
2012,07,23,13,56,13.30
2012,07,23,13,57,13.30
2012,07,23,13,58,13.30
2012,07,23,13,59,13.30
2012,07,23,14,00,13.30
2012,07,23,14,01,13.30
2012,07,23,14,02,13.30
2012,07,23,14,03,13.20
2012,07,23,14,04,13.20
2012,07,23,14,05,13.20
2012,07,23,14,06,13.30
2012,07,23,14,07,13.30
2012,07,23,14,08,13.30
2012,07,23,14,09,13.30
2012,07,23,14,10,13.30
2012,07,23,14,11,13.30
2012,07,23,14,12,13.30
2012,07,23,14,13,13.30
2012,07,23,14,14,13.30
2012,07,23,14,15,13.30
2012,07,23,14,16,13.30
2012,07,23,14,17,13.30
2012,07,23,14,18,13.30
2012,07,23,14,19,13.30
2012,07,23,14,20,13.30
2012,07,23,14,21,13.30
2012,07,23,14,22,13.30
2012,07,23,14,23,13.30
2012,07,23,14,24,13.30
2012,07,23,14,25,13.30
2012,07,23,14,26,13.30
2012,07,23,14,27,13.30
2012,07,23,14,28,13.40
2012,07,23,14,29,13.40
2012,07,23,14,30,13.40
2012,07,23,14,31,13.50
2012,07,23,14,32,13.50
2012,07,23,14,33,13.50
2012,07,23,14,34,13.60
2012,07,23,14,35,13.60
2012,07,23,14,36,13.70
2012,07,23,14,37,13.70
2012,07,23,14,38,13.70
2012,07,23,14,39,13.70
2012,07,23,14,40,13.70
2012,07,23,14,41,13.70
2012,07,23,14,42,13.70
2012,07,23,14,43,13.70
2012,07,23,14,44,13.80
2012,07,23,14,45,13.80
2012,07,23,14,46,13.80
2012,07,23,14,47,13.80
2012,07,23,14,48,13.80
2012,07,23,14,49,13.80
2012,07,23,14,50,13.80
2012,07,23,14,51,13.90
2012,07,23,14,52,13.90
2012,07,23,14,53,13.90
2012,07,23,14,54,13.90
2012,07,23,14,55,13.90
2012,07,23,14,56,13.90
2012,07,23,14,57,14.00
2012,07,23,14,58,14.00
2012,07,23,14,59,14.00
2012,07,23,15,00,14.00
2012,07,23,15,01,14.00
2012,07,23,15,02,14.00
2012,07,23,15,03,14.00
2012,07,23,15,04,14.00
2012,07,23,15,05,14.00
2012,07,23,15,06,14.00
2012,07,23,15,07,13.90
2012,07,23,15,08,14.00
2012,07,23,15,09,14.00
2012,07,23,15,10,14.00
2012,07,23,15,11,14.00
2012,07,23,15,12,14.00
2012,07,23,15,13,14.00
2012,07,23,15,14,14.00
2012,07,23,15,15,14.00
2012,07,23,15,16,14.00
2012,07,23,15,17,14.00
2012,07,23,15,18,14.00
2012,07,23,15,19,14.00
2012,07,23,15,20,14.00
2012,07,23,15,21,14.00
2012,07,23,15,22,14.00
2012,07,23,15,23,13.90
2012,07,23,15,24,13.90
2012,07,23,15,25,13.90
2012,07,23,15,26,13.90
2012,07,23,15,27,13.90
2012,07,23,15,28,13.90
2012,07,23,15,29,13.90
2012,07,23,15,30,13.90
2012,07,23,15,31,13.90
2012,07,23,15,32,14.00
2012,07,23,15,33,14.00
2012,07,23,15,34,14.10
2012,07,23,15,35,14.20
2012,07,23,15,36,14.20
2012,07,23,15,37,14.20
2012,07,23,15,38,14.20
2012,07,23,15,39,14.20
2012,07,23,15,40,14.20
2012,07,23,15,41,14.20
2012,07,23,15,42,14.20
2012,07,23,15,43,14.20
2012,07,23,15,44,14.20
2012,07,23,15,45,14.20
2012,07,23,15,46,14.20
2012,07,23,15,47,14.20
2012,07,23,15,48,14.20
2012,07,23,15,49,14.20
2012,07,23,15,50,14.20
2012,07,23,15,51,14.30
2012,07,23,15,52,14.30
2012,07,23,15,53,14.30
2012,07,23,15,54,14.40
2012,07,23,15,55,14.40
2012,07,23,15,56,14.50
2012,07,23,15,57,14.50
2012,07,23,15,58,14.60
2012,07,23,15,59,14.70
2012,07,23,16,00,14.70
2012,07,23,16,01,14.90
2012,07,23,16,02,15.00
2012,07,23,16,03,15.10
2012,07,23,16,04,15.10
2012,07,23,16,05,15.20
2012,07,23,16,06,15.20
2012,07,23,16,07,15.30
2012,07,23,16,08,15.40
2012,07,23,16,09,15.50
2012,07,23,16,10,15.60
2012,07,23,16,11,15.60
2012,07,23,16,12,15.70
2012,07,23,16,13,15.70
2012,07,23,16,14,15.70
2012,07,23,16,15,15.70
2012,07,23,16,16,15.80
2012,07,23,16,17,15.80
2012,07,23,16,18,15.80
2012,07,23,16,19,15.80
2012,07,23,16,20,15.80
2012,07,23,16,21,15.70
2012,07,23,16,22,15.60
2012,07,23,16,23,15.60
2012,07,23,16,24,15.60
2012,07,23,16,25,15.60
2012,07,23,16,26,15.50
2012,07,23,16,27,15.50
2012,07,23,16,28,15.50
2012,07,23,16,29,15.50
2012,07,23,16,30,15.60
2012,07,23,16,31,15.60
2012,07,23,16,32,15.60
2012,07,23,16,33,15.70
2012,07,23,16,34,15.70
2012,07,23,16,35,15.80
2012,07,23,16,36,15.80
2012,07,23,16,37,15.80
2012,07,23,16,38,15.80
2012,07,23,16,39,15.80
2012,07,23,16,40,15.80
2012,07,23,16,41,15.80
2012,07,23,16,42,15.80
2012,07,23,16,43,15.80
2012,07,23,16,44,15.70
2012,07,23,16,45,15.70
2012,07,23,16,46,15.70
2012,07,23,16,47,15.70
2012,07,23,16,48,15.70
2012,07,23,16,49,15.70
2012,07,23,16,50,15.80
2012,07,23,16,51,15.80
2012,07,23,16,52,15.80
2012,07,23,16,53,15.80
2012,07,23,16,54,15.80
2012,07,23,16,55,15.80
2012,07,23,16,56,15.80
2012,07,23,16,57,15.80
2012,07,23,16,58,15.70
2012,07,23,16,59,15.70
2012,07,23,17,00,15.70
2012,07,23,17,01,15.70
2012,07,23,17,02,15.70
2012,07,23,17,03,15.70
2012,07,23,17,04,15.70
2012,07,23,17,05,15.70
2012,07,23,17,06,15.60
2012,07,23,17,07,15.60
2012,07,23,17,08,15.60
2012,07,23,17,09,15.60
2012,07,23,17,10,15.60
2012,07,23,17,11,15.60
2012,07,23,17,12,15.60
2012,07,23,17,13,15.70
2012,07,23,17,14,15.70
2012,07,23,17,15,15.70
2012,07,23,17,16,15.60
2012,07,23,17,17,15.60
2012,07,23,17,18,15.60
2012,07,23,17,19,15.60